Regional Weather Roundup
Issued by NWS Midland/Odessa, TX

Home | Current Version | Previous Version | Text Only | Print | Product List | Glossary On
Versions: 1 2 3 4 5 6 7 8 9 10 11 12 13 14 15 16 17 18 19 20 21 22 23 24 25 26 27 28 29 30 31 32 33 34 35 36 37 38 39 40 41 42 43 44 45 46 47 48 49 50
000
ASUS44 KMAF 251210
RWRMAF
MIDLAND AREA WEATHER ROUNDUP
NATIONAL WEATHER SERVICE MIDLAND TX
700 AM CDT SAT OCT 25 2014

...IN SOUTHWEST TEXAS AND SOUTHEAST NEW MEXICO...

CITY           SKY/WX    TMP DP  RH WIND       PRES   REMARKS
ALPINE         CLEAR     58  51  77 SW6       30.31S
ANDREWS        FAIR      58  57  96 S7        30.18S
ARTESIA        NOT AVBL
BIG SPRING     CLEAR     59  56  91 SE5       30.19S
CARLSBAD       CLEAR     51  48  89 W3        30.16R
DRYDEN           N/A     62  60  93 N7        30.15S
FORT STOCKTON  CLEAR     62  55  77 S10       30.17S
GUAD PASS      CLEAR     60  44  55 SW10      30.29S
HOBBS          CLEAR     52  52 100 CALM      30.20  FOG
MARFA          CLEAR     48  46  93 N7        30.29S
MIDLAND AIRPK  CLEAR     63  58  86 S6        30.18S
MIDLAND INTL   CLEAR     58  54  86 S5        30.17R
ODESSA         CLEAR     60  56  86 S5        30.18S
PECOS          CLEAR     53  51  94 NW3       30.15S
PRESIDIO       FAIR      63  54  72 CALM      30.18R
SEMINOLE       CLEAR     52  51  95 CALM      30.20R
SNYDER         CLEAR     57  55  92 SW3       30.17S
WINK           CLEAR     61  56  83 SE6       30.15R
$$
...OTHER STATIONS IN TEXAS...

CITY           SKY/WX    TMP DP  RH WIND       PRES   REMARKS
ABILENE        CLEAR     66  57  72 CALM      30.13S
AMARILLO       CLEAR     55  48  77 SW9       30.15S
AUSTIN         CLEAR     54  54 100 CALM      30.14S
BROWNSVILLE    CLEAR     65  63  93 CALM      30.12S
CORPUS CHRISTI CLEAR     62  59  90 NW5       30.13S
DALLAS FTW     CLEAR     66  58  75 S9        30.11R
DEL RIO        CLEAR     63  60  90 E6        30.13S
EL PASO        CLEAR     58  48  69 CALM      30.20R
HOUSTON INT    PTCLDY    57  56  96 CALM      30.15R
LUBBOCK        CLEAR     54  49  83 W8        30.17R
SAN ANGELO     CLEAR     57  54  89 SW3       30.16R
SAN ANTONIO    CLEAR     62  57  83 N3        30.16S
WACO           CLEAR     60  57  89 SE5       30.13S
WICHITA FALLS  NOT AVBL
$$
...OTHER LOCATIONS IN NEW MEXICO...

CITY           SKY/WX    TMP DP  RH WIND       PRES   REMARKS
ALAMAGORDO     NOT AVBL
ALBUQUERQUE    CLEAR     51  37  58 CALM      30.29S
CANNON AFB     CLEAR     54  49  81 SW5       30.19S
CLOVIS         CLEAR     48  43  81 W7        30.22S
HOLLOMAN AFB   PTCLDY    52  44  74 CALM      30.21R
ROSWELL        CLEAR     53  48  83 CALM      30.18R
RUIDOSO        CLEAR     50  36  57 W8        30.37S
SANTA FE       CLEAR     46  23  40 N14       30.33R WCI  40
TRUTH OR CONSE CLEAR     52  43  71 W7        30.24S
TUCUMCARI      CLEAR     52  42  69 W7        30.15S
$$



USA.gov is the U.S. government's official web portal to all federal, state and local government web resources and services.